Simultaneous Nadir Overpasses (SNOs) Predictions

Prediction of SNOs between AQUA and METOP-B Satellite Orbit:

Table of predicted SNOs for the next 14.0 days since TLE Epoch: 4/30/2016
Index Date (AQUA) Time (AQUA) Lat,Lon (AQUA) SZA (AQUA ) Date (METOP-B) Time (METOP-B) Lat,Lon (METOP-B) SZA (METOP-B ) Distance(km) Time Diff (sec)
1 05/01/2016 11:55:21 73.83, -4.53 58.52 05/01/2016 11:54:39 73.81, -4.53 58.50 2.35 42
2 05/01/2016 12:44:48 -73.90, 162.97 121.43 05/01/2016 12:45:20 -73.87, 162.94 121.45 2.89 32
3 05/04/2016 07:29:32 73.81, 61.97 57.67 05/04/2016 07:29:03 73.82, 61.89 57.68 2.56 29
4 05/04/2016 08:18:59 -73.87,-130.52 122.28 05/04/2016 08:19:44 -73.88,-130.63 122.27 3.50 45
5 05/07/2016 02:14:07 -73.34, -38.21 123.62 05/07/2016 02:12:59 -73.26, -40.31 123.62 67.66 68
6 05/07/2016 03:03:44 73.85, 128.32 56.92 05/07/2016 03:03:27 73.83, 128.32 56.90 2.82 17
7 05/07/2016 03:53:11 -73.91, -64.16 123.03 05/07/2016 03:54:08 -73.89, -64.20 123.06 2.57 57
8 05/09/2016 21:48:25 -73.76, 27.35 123.93 05/09/2016 21:47:12 -73.77, 27.26 123.90 2.90 73
9 05/09/2016 22:37:54 73.86,-165.24 56.17 05/09/2016 22:37:50 73.84,-165.24 56.15 2.49 4
10 05/09/2016 23:27:21 -73.92, 2.28 123.78 05/09/2016 23:28:31 -73.90, 2.23 123.80 2.22 70
11 05/12/2016 17:22:36 -73.78, 93.76 124.62 05/12/2016 17:21:36 -73.78, 93.69 124.61 2.04 60
12 05/12/2016 18:12:05 73.88, -98.83 55.48 05/12/2016 18:12:14 73.85, -98.81 55.45 3.70 9




NCC Satellite Simultaneous Nadir Overpasses (SNOs) Prediction Service
